This demonstration page uses our WeatherBlox Daily Observations layout. Learn more.

Left ArrowRight Arrow

Hourly Observations for March 30, 2019

Temp ( °F °C ) Dew Point ( °F °C ) Humidity (%) Winds ( mph kmh ) Pressure ( in mb ) Visibility ( mi km ) Precip ( " mm )
12:57 am 00:57 Windy with Snow Likely 31 -0.6 30 -1.1 96 96 N 22 35 30.17 1022 9 14 0.00 0.03
1:57 am 01:57 Cloudy 31 -0.6 30 -1.1 96 96 N 18 30 30.17 1022 10 16 0.00 0.03
2:46 am 02:46 Cloudy with Light Wintry Mix 30 -1 30 -1 100 100 NNW 15 24 30.23 1024 10 16 0.00 0.03
2:57 am 02:57 Cloudy with Light Wintry Mix 31 -0.6 30 -1.1 96 96 NNW 15 24 30.18 1022 10 16 0.00 0.03
3:57 am 03:57 Cloudy 32 0 29 -1.7 88 88 NNW 15 24 30.18 1022 10 16 0.00 0.03
4:57 am 04:57 Cloudy 32 0 28 -2.2 85 85 NNW 16 26 30.19 1022 10 16 0.00 0.00
5:57 am 05:57 Cloudy 33 0.6 28 -2.2 82 82 NNW 16 26 30.22 1023 10 16 0.00 0.00
6:57 am 06:57 Cloudy 33 0.6 29 -1.7 85 85 N 17 28 30.25 1025 10 16 0.00 0.00
7:24 am 07:24 Cloudy 34 1 28 -2 81 81 N 29 46 30.31 1026 10 16 0.00 0.00
7:53 am 07:53 Cloudy 32 0 28 -2 87 87 N 20 31 30.34 1027 10 16 0.00 0.00
7:57 am 07:57 Cloudy 32 0 28 -2.2 85 85 N 18 30 30.30 1026 10 16 0.00 0.00
8:57 am 08:57 Mostly Cloudy 32 0 26 -3.3 79 79 N 26 43 30.35 1028 10 16 0.00 0.00
9:55 am 09:55 Cloudy 30 -1 25 -4 80 80 N 26 43 30.42 1030 9 14 0.00 0.03
9:57 am 09:57 Cloudy 31 -0.6 25 -3.9 79 79 N 25 41 30.38 1029 9 14 0.00 0.03
10:07 am 10:07 Cloudy 34 1 25 -4 70 70 N 21 33 30.41 1030 10 16 0.00 0.00
10:57 am 10:57 Mostly Cloudy 34 1.1 24 -4.4 67 67 N 23 37 30.41 1030 10 16 0.00 0.00
11:19 am 11:19 Mostly Sunny 34 1 21 -6 60 60 N 26 43 30.44 1031 10 16 0.00 0.00
11:57 am 11:57 Mostly Sunny 34 1.1 20 -6.7 56 56 N 26 43 30.43 1030 10 16 0.00 0.00
12:57 pm 12:57 Mostly Sunny 34 1.1 19 -7.2 54 54 N 24 39 30.44 1031 10 16 0.00 0.00
1:57 pm 13:57 Mostly Cloudy 34 1.1 20 -6.7 56 56 NNW 23 37 30.43 1031 10 16 0.00 0.00
2:57 pm 14:57 Mostly Cloudy 35 1.7 19 -7.2 52 52 NNW 20 31 30.42 1030 10 16 0.00 0.00
3:57 pm 15:57 Mostly Cloudy 36 2.2 18 -7.8 48 48 N 18 30 30.41 1030 10 16 0.00 0.00
4:57 pm 16:57 Mostly Cloudy 36 2.2 18 -7.8 48 48 NNW 21 33 30.41 1030 10 16 0.00 0.00
5:57 pm 17:57 Cloudy 36 2.2 18 -7.8 48 48 N 20 31 30.40 1030 10 16 0.00 0.00
6:57 pm 18:57 Mostly Sunny 36 2.2 18 -7.8 48 48 NNW 15 24 30.41 1030 10 16 0.00 0.00
7:57 pm 19:57 Mostly Sunny 34 1.1 19 -7.2 54 54 NNW 9 15 30.42 1030 10 16 0.00 0.00
8:57 pm 20:57 Clear 31 -0.6 21 -6.1 67 67 NW 5 7 30.44 1031 10 16 0.00 0.00
9:57 pm 21:57 Clear 29 -1.7 22 -5.6 75 75 WNW 6 9 30.47 1032 10 16 0.00 0.00
10:57 pm 22:57 Clear 28 -2.2 22 -5.6 78 78 WNW 6 9 30.47 1032 10 16 0.00 0.00
11:57 pm 23:57 Clear 27 -2.8 22 -5.6 81 81 NW 7 11 30.47 1032 10 16 0.00 0.00

Powered by AerisWeather